San Jose, Costa Rica

9:46 PM CST on July 25, 2017 (GMT -0600)
Juan Santamaria International

Weather History for MROC - October, 2011

Change the Weather History Date:

Monday, October 31, 2011

  Actual Average Record
Temperature  
Mean Temperature 71 °F -  
Max Temperature 76 °F 78 °F 86 °F (1997)
Min Temperature 66 °F 64 °F 63 °F (2013)
Cooling Degree Days 6    
Growing Degree Days 21 (Base 50)    
Moisture  
Dew Point 66 °F    
Average Humidity 87    
Maximum Humidity 94    
Minimum Humidity 73    
Precipitation  
Precipitation 0.04 in 0.17 in - ()
Sea Level Pressure  
Sea Level Pressure 29.92 in    
Wind  
Wind Speed 4 mph ()    
Max Wind Speed 10 mph    
Max Gust Speed -    
Visibility 6.8 miles    
Events Rain    
Averages and records for this station are not official NWS values.
T = Trace of Precipitation, MM = Missing Value Source: Averaged Metar Reports

Daily Weather History Graph

Daily Weather History Graph

Search for Another Location

Airport or City:

Trip Planner

Search our weather history database for the weather conditions in past years. The results will help you decide how hot, cold, wet, or windy it might be!

Date:

Astronomy

Oct. 31, 2011 Rise Set
Actual Time 5:27 AM CST 5:13 PM CST
Civil Twilight 5:05 AM CST 5:35 PM CST
Nautical Twilight 4:40 AM CST 6:00 PM CST
Astronomical Twilight 4:15 AM CST 6:25 PM CST
Moon 10:11 AM CST (10/31) 10:07 PM CST (10/31)
Length of Visible Light 12h 29m
Length of Day
11h 46m
Waxing Crescent, 30% of the Moon is Illuminated
Oct 31
Waxing Crescent
Nov 2
First Quarter
Nov 10
Full
Nov 18
Last Quarter
Nov 25
New

Hourly Weather History & Observations

Time (CST) Temp. Dew Point Humidity Pressure Visibility Wind Dir Wind Speed Gust Speed Precip Events Conditions
12:00 AM 68 °F 66 °F 91% 29.85 in 12 mi NE 2.3 mph - -   Partly Cloudy
12:00 AM 68.0 °F 66.2 °F 94% 29.97 in - NE 2.3 mph - N/A   Clear
1:00 AM 68.0 °F 64.4 °F 88% 29.94 in - ENE 2.3 mph - N/A   Clear
2:00 AM 68.0 °F 64.4 °F 88% 29.92 in - ENE 2.3 mph - N/A   Clear
3:00 AM 68.0 °F 64.4 °F 88% 29.92 in 6.2 mi NNE 4.6 mph - N/A Rain Light Rain
4:00 AM 66.2 °F 64.4 °F 94% 29.92 in - NE 2.3 mph - N/A   Clear
5:00 AM 68.0 °F 64.4 °F 88% 29.92 in - ENE 2.3 mph - N/A   Clear
6:00 AM 67 °F 64 °F 88% 29.83 in 12 mi NNE 5.8 mph - -   Overcast
6:00 AM 66.2 °F 64.4 °F 94% 29.93 in - NNE 5.8 mph - N/A   Clear
7:00 AM 69.8 °F 64.4 °F 83% 29.93 in - ESE 3.5 mph - N/A   Clear
9:00 AM 71.6 °F 64.4 °F 78% 29.98 in 6.2 mi WSW 6.9 mph - N/A   Mostly Cloudy
10:00 AM 71.6 °F 68.0 °F 88% 29.99 in 6.2 mi West 6.9 mph - N/A   Mostly Cloudy
11:00 AM 73.4 °F 66.2 °F 78% 29.95 in 6.2 mi WSW 6.9 mph - N/A   Mostly Cloudy
12:00 PM 73.4 °F 66.2 °F 78% 29.92 in 6.2 mi West 8.1 mph - N/A   Mostly Cloudy
1:00 PM 75.2 °F 66.2 °F 73% 29.89 in 6.2 mi SW 6.9 mph - N/A   Mostly Cloudy
2:00 PM 75.2 °F 66.2 °F 73% 29.87 in 6.2 mi West 6.9 mph - N/A   Mostly Cloudy
3:00 PM 75.2 °F 68.0 °F 78% 29.86 in 6.2 mi WSW 9.2 mph - N/A   Mostly Cloudy
4:00 PM 69.8 °F 66.2 °F 88% 29.88 in 6.2 mi WSW 10.4 mph - N/A   Mostly Cloudy
5:00 PM 69.8 °F 66.2 °F 88% 29.90 in 6.2 mi WSW 5.8 mph - N/A   Mostly Cloudy
6:00 PM 69 °F 66 °F 86% 29.85 in 6 mi WNW 2.3 mph - -   Overcast
6:00 PM 68.0 °F 66.2 °F 94% 29.92 in 6.2 mi WNW 2.3 mph - N/A   Mostly Cloudy
7:00 PM 68.0 °F 66.2 °F 94% 29.95 in 5.0 mi Calm Calm - N/A Rain Light Rain
8:00 PM 68.0 °F 66.2 °F 94% 29.97 in 6.2 mi East 2.3 mph - N/A   Drizzle
9:00 PM 68 °F 67 °F 94% 29.86 in 9 mi East 2.3 mph - - Rain Light Drizzle
9:00 PM 68.0 °F 66.2 °F 94% 29.98 in 6.2 mi East 2.3 mph - N/A   Light Drizzle
10:00 PM 68.0 °F 64.4 °F 88% 29.98 in 6.2 mi East 3.5 mph - N/A   Mostly Cloudy
11:00 PM 68.0 °F 64.4 °F 88% 29.98 in 6.2 mi East 2.3 mph - N/A   Mostly Cloudy